| time (UTC) | temp F | wind direction | speed MPH | gust MPH | rain 1hr in | rain 24hr in | rain mn in | humidity % | barometer mb |
| 20260507113225 | 46 | 302 | 3.0 | 5.0 | 0.00 | 0.30 | 0.00 | 86 | 1011.4 |
| 20260507112225 | 46 | 327 | 4.0 | 6.0 | 0.00 | 0.30 | 0.00 | 87 | 1011.1 |
| 20260507111224 | 45 | 326 | 3.0 | 5.0 | 0.00 | 0.30 | 0.00 | 89 | 1011.2 |
| 20260507110224 | 44 | 318 | 2.0 | 4.0 | 0.00 | 0.30 | 0.00 | 89 | 1011.2 |
| 20260507105241 | 44 | 337 | 2.0 | 3.0 | 0.00 | 0.30 | 0.00 | 91 | 1011.0 |
| 20260507104324 | 43 | 346 | 2.0 | 4.0 | 0.00 | 0.30 | 0.00 | 90 | 1010.8 |
| 20260507103325 | 43 | 336 | 3.0 | 5.0 | 0.00 | 0.30 | 0.00 | 91 | 1010.5 |
| 20260507103226 | 43 | 299 | 3.0 | 8.0 | 0.00 | 0.30 | 0.00 | 91 | 1010.6 |
| 20260507102324 | 43 | 349 | 3.0 | 5.0 | 0.00 | 0.30 | 0.00 | 90 | 1010.5 |
| 20260507102223 | 43 | 312 | 4.0 | 7.0 | 0.00 | 0.30 | 0.00 | 91 | 1010.6 |
| 20260507095227 | 44 | 326 | 3.0 | 5.0 | 0.00 | 0.30 | 0.00 | 90 | 1010.6 |
| 20260507095125 | 44 | 346 | 2.0 | 5.0 | 0.00 | 0.30 | 0.00 | 90 | 1010.6 |
| 20260507094126 | 44 | 265 | 3.0 | 6.0 | 0.00 | 0.30 | 0.00 | 89 | 1011.0 |
| 20260507093125 | 44 | 343 | 3.0 | 5.0 | 0.00 | 0.30 | 0.00 | 90 | 1010.6 |
| 20260507093025 | 44 | 346 | 3.0 | 4.0 | 0.00 | 0.30 | 0.00 | 90 | 1010.9 |
| 20260507092025 | 44 | 315 | 0.0 | 1.0 | 0.00 | 0.30 | 0.00 | 90 | 1011.1 |
| 20260507091026 | 44 | 350 | 1.0 | 3.0 | 0.00 | 0.30 | 0.00 | 90 | 1011.1 |
| 20260507090025 | 44 | 7 | 2.0 | 3.0 | 0.00 | 0.30 | 0.00 | 90 | 1011.4 |
| 20260507083223 | 44 | 315 | 1.0 | 2.0 | 0.00 | 0.30 | 0.00 | 90 | 1011.0 |
| 20260507082226 | 44 | 310 | 2.0 | 4.0 | 0.00 | 0.30 | 0.00 | 89 | 1010.9 |
| 20260507081226 | 44 | 351 | 3.0 | 5.0 | 0.00 | 0.30 | 0.00 | 90 | 1011.0 |
| 20260507080224 | 44 | 311 | 3.0 | 4.0 | 0.00 | 0.30 | 0.00 | 90 | 1011.0 |
| 20260507073227 | 44 | 337 | 0.0 | 0.0 | 0.00 | 0.30 | 0.00 | 90 | 1011.2 |
| 20260507071225 | 44 | 11 | 0.0 | 2.0 | 0.00 | 0.30 | 0.00 | 90 | 1010.5 |
| 20260507070225 | 45 | 347 | 1.0 | 2.0 | 0.00 | 0.30 | 0.00 | 90 | 1010.5 |
| 20260507064225 | 45 | 356 | 1.0 | 3.0 | 0.00 | 0.30 | 0.00 | 90 | 1010.4 |
| 20260507062225 | 45 | 336 | 3.0 | 7.0 | 0.00 | 0.30 | 0.00 | 91 | 1010.4 |
| 20260507062125 | 46 | 341 | 2.0 | 3.0 | 0.00 | 0.30 | 0.00 | 91 | 1010.3 |
| 20260507062026 | 46 | 334 | 2.0 | 5.0 | 0.00 | 0.30 | 0.00 | 91 | 1010.4 |
| 20260507061123 | 46 | 321 | 1.0 | 2.0 | 0.00 | 0.30 | 0.00 | 91 | 1010.8 |
| 20260507060125 | 46 | 304 | 1.0 | 3.0 | 0.00 | 0.30 | 0.00 | 91 | 1010.8 |
| 20260507055126 | 46 | 247 | 0.0 | 0.0 | 0.00 | 0.30 | 0.00 | 90 | 1010.8 |
| 20260507055040 | 46 | 247 | 0.0 | 1.0 | 0.00 | 0.30 | 0.00 | 91 | 1010.9 |
| 20260507054124 | 46 | 157 | 0.0 | 0.0 | 0.00 | 0.30 | 0.00 | 91 | 1010.8 |
| 20260507054025 | 46 | 157 | 0.0 | 0.0 | 0.00 | 0.30 | 0.00 | 91 | 1010.8 |
| 20260507053925 | 46 | 157 | 0.0 | 0.0 | 0.00 | 0.30 | 0.00 | 90 | 1010.8 |
| 20260507053025 | 46 | 157 | 0.0 | 0.0 | 0.00 | 0.30 | 0.00 | 91 | 1011.0 |
| 20260507052025 | 46 | 157 | 0.0 | 0.0 | 0.00 | 0.30 | 0.00 | 91 | 1010.8 |
| 20260507050927 | 46 | 157 | 1.0 | 2.0 | 0.00 | 0.30 | 0.00 | 91 | 1010.9 |
| 20260507045925 | 47 | 135 | 0.0 | 1.0 | 0.00 | 0.30 | 0.00 | 91 | 1010.9 |
| 20260507044925 | 47 | 336 | 2.0 | 3.0 | 0.00 | 0.30 | 0.00 | 91 | 1010.8 |
| 20260507044824 | 47 | 11 | 2.0 | 4.0 | 0.00 | 0.30 | 0.00 | 91 | 1010.7 |
| 20260507044725 | 47 | 22 | 2.0 | 4.0 | 0.00 | 0.30 | 0.00 | 91 | 1010.6 |
| 20260507043725 | 47 | 178 | 0.0 | 1.0 | 0.00 | 0.30 | 0.00 | 90 | 1010.5 |
| 20260507043639 | 47 | 337 | 0.0 | 1.0 | 0.00 | 0.30 | 0.00 | 90 | 1010.4 |
| 20260507043525 | 47 | 337 | 0.0 | 2.0 | 0.00 | 0.30 | 0.00 | 90 | 1010.4 |
| 20260507041624 | 48 | 108 | 1.0 | 2.0 | 0.00 | 0.30 | 0.00 | 91 | 1010.5 |
| 20260507041524 | 48 | 337 | 0.0 | 1.0 | 0.00 | 0.30 | 0.00 | 91 | 1010.6 |
| 20260507041425 | 48 | 354 | 2.0 | 2.0 | 0.00 | 0.30 | 0.00 | 91 | 1010.5 |
| 20260507040424 | 48 | 180 | 0.0 | 0.0 | 0.00 | 0.30 | 0.00 | 91 | 1011.0 |
| 20260507035446 | 48 | 113 | 2.0 | 3.0 | 0.00 | 0.30 | 0.30 | 90 | 1010.8 |
| 20260507033630 | 48 | 337 | 0.0 | 0.0 | 0.00 | 0.30 | 0.30 | 91 | 1010.5 |
| 20260507033534 | 48 | 337 | 0.0 | 0.0 | 0.01 | 0.30 | 0.30 | 90 | 1010.5 |
| 20260507033431 | 48 | 325 | 1.0 | 3.0 | 0.01 | 0.30 | 0.30 | 90 | 1010.4 |
| 20260507032433 | 49 | 257 | 0.0 | 2.0 | 0.02 | 0.30 | 0.30 | 91 | 1010.3 |
| 20260507031532 | 49 | 284 | 3.0 | 4.0 | 0.03 | 0.30 | 0.30 | 91 | 1010.5 |
| 20260507025631 | 50 | 226 | 0.0 | 0.0 | 0.03 | 0.30 | 0.30 | 90 | 1010.5 |
| 20260507024730 | 50 | 184 | 0.0 | 2.0 | 0.04 | 0.30 | 0.30 | 91 | 1010.4 |
| 20260507023731 | 51 | 258 | 4.0 | 7.0 | 0.04 | 0.30 | 0.30 | 91 | 1010.4 |
| 20260507023630 | 51 | 230 | 3.0 | 7.0 | 0.04 | 0.30 | 0.28 | 91 | 1010.5 |
| 20260507022631 | 52 | 294 | 1.0 | 3.0 | 0.02 | 0.28 | 0.28 | 91 | 1010.3 |
| 20260507021730 | 52 | 298 | 3.0 | 7.0 | 0.01 | 0.27 | 0.27 | 91 | 1010.2 |
| 20260507020830 | 52 | 239 | 2.0 | 5.0 | 0.02 | 0.27 | 0.27 | 91 | 1009.6 |
| 20260507020730 | 52 | 187 | 2.0 | 7.0 | 0.02 | 0.27 | 0.27 | 90 | 1009.7 |
| 20260507020632 | 52 | 304 | 1.0 | 4.0 | 0.02 | 0.27 | 0.27 | 91 | 1009.7 |
| 20260507015730 | 53 | 353 | 1.0 | 4.0 | 0.03 | 0.27 | 0.27 | 91 | 1009.6 |
| 20260507015646 | 53 | 354 | 2.0 | 6.0 | 0.03 | 0.27 | 0.27 | 91 | 1009.7 |
| 20260507014731 | 54 | 326 | 1.0 | 3.0 | 0.03 | 0.26 | 0.26 | 90 | 1009.5 |
| 20260507013730 | 55 | 323 | 3.0 | 6.0 | 0.06 | 0.26 | 0.26 | 89 | 1009.3 |
| 20260507011732 | 57 | 331 | 4.0 | 7.0 | 0.06 | 0.26 | 0.26 | 89 | 1009.0 |
| 20260507011633 | 57 | 351 | 5.0 | 10.0 | 0.06 | 0.26 | 0.26 | 89 | 1009.1 |
| 20260507010631 | 57 | 276 | 1.0 | 2.0 | 0.05 | 0.25 | 0.25 | 89 | 1009.0 |
| 20260507010532 | 57 | 292 | 0.0 | 2.0 | 0.05 | 0.25 | 0.25 | 89 | 1008.9 |
| 20260507005530 | 57 | 251 | 0.0 | 2.0 | 0.04 | 0.24 | 0.24 | 89 | 1008.7 |
| 20260507004531 | 57 | 225 | 0.0 | 0.0 | 0.02 | 0.22 | 0.22 | 89 | 1008.5 |
| 20260507002532 | 58 | 198 | 1.0 | 3.0 | 0.00 | 0.20 | 0.20 | 89 | 1008.3 |
| 20260507001532 | 58 | 244 | 2.0 | 5.0 | 0.00 | 0.20 | 0.20 | 89 | 1008.1 |
| 20260507000531 | 57 | 211 | 0.0 | 2.0 | 0.00 | 0.20 | 0.20 | 89 | 1008.2 |
| 20260506235530 | 57 | 259 | 2.0 | 5.0 | 0.00 | 0.22 | 0.20 | 88 | 1008.1 |
| 20260506235432 | 57 | 249 | 1.0 | 5.0 | 0.00 | 0.22 | 0.20 | 89 | 1008.1 |
| 20260506234432 | 57 | 224 | 1.0 | 2.0 | 0.00 | 0.22 | 0.20 | 89 | 1007.9 |
| 20260506233431 | 57 | 223 | 2.0 | 7.0 | 0.00 | 0.22 | 0.20 | 89 | 1007.9 |
| 20260506232448 | 57 | 148 | 1.0 | 6.0 | 0.00 | 0.22 | 0.20 | 88 | 1007.8 |
| 20260506231431 | 57 | 155 | 3.0 | 5.0 | 0.00 | 0.22 | 0.20 | 88 | 1007.9 |
| 20260506230431 | 57 | 223 | 2.0 | 4.0 | 0.00 | 0.22 | 0.20 | 88 | 1008.0 |
| 20260506225529 | 57 | 227 | 3.0 | 5.0 | 0.00 | 0.22 | 0.20 | 89 | 1007.9 |
| 20260506224531 | 57 | 196 | 1.0 | 3.0 | 0.00 | 0.22 | 0.20 | 90 | 1008.0 |
| 20260506224433 | 57 | 173 | 2.0 | 3.0 | 0.00 | 0.22 | 0.20 | 89 | 1007.9 |
| 20260506223530 | 57 | 165 | 4.0 | 11.0 | 0.00 | 0.22 | 0.20 | 90 | 1008.1 |
| 20260506222532 | 58 | 183 | 4.0 | 8.0 | 0.00 | 0.22 | 0.20 | 90 | 1008.1 |
| 20260506221533 | 58 | 203 | 1.0 | 3.0 | 0.00 | 0.22 | 0.20 | 90 | 1008.1 |
| 20260506220631 | 58 | 247 | 2.0 | 5.0 | 0.00 | 0.22 | 0.20 | 90 | 1008.2 |
| 20260506215634 | 58 | 200 | 3.0 | 8.0 | 0.00 | 0.22 | 0.20 | 90 | 1008.1 |
| 20260506213829 | 58 | 206 | 4.0 | 9.0 | 0.00 | 0.22 | 0.20 | 89 | 1008.1 |
| 20260506213731 | 58 | 140 | 3.0 | 7.0 | 0.00 | 0.22 | 0.20 | 90 | 1008.1 |
| 20260506212731 | 58 | 220 | 3.0 | 6.0 | 0.00 | 0.22 | 0.20 | 89 | 1008.1 |
| 20260506211731 | 59 | 200 | 4.0 | 11.0 | 0.00 | 0.22 | 0.20 | 88 | 1008.1 |
| 20260506210730 | 58 | 193 | 1.0 | 2.0 | 0.00 | 0.22 | 0.20 | 89 | 1008.2 |
| 20260506205747 | 58 | 161 | 4.0 | 9.0 | 0.01 | 0.22 | 0.20 | 89 | 1008.1 |
| 20260506203832 | 59 | 182 | 2.0 | 10.0 | 0.03 | 0.22 | 0.20 | 89 | 1008.4 |
| 20260506203732 | 59 | 207 | 5.0 | 14.0 | 0.03 | 0.22 | 0.20 | 89 | 1008.5 |
| 20260506202732 | 59 | 204 | 4.0 | 7.0 | 0.04 | 0.22 | 0.20 | 89 | 1008.5 |
| 20260506201830 | 59 | 210 | 3.0 | 9.0 | 0.06 | 0.22 | 0.20 | 89 | 1008.5 |
| 20260506200830 | 59 | 190 | 2.0 | 9.0 | 0.09 | 0.22 | 0.20 | 89 | 1008.7 |
| 20260506200731 | 59 | 203 | 1.0 | 3.0 | 0.09 | 0.22 | 0.20 | 89 | 1008.7 |
| 20260506195747 | 59 | 208 | 4.0 | 8.0 | 0.08 | 0.21 | 0.19 | 89 | 1008.7 |
| 20260506195646 | 59 | 177 | 3.0 | 7.0 | 0.09 | 0.21 | 0.19 | 88 | 1008.8 |
| 20260506193730 | 59 | 219 | 1.0 | 4.0 | 0.07 | 0.19 | 0.17 | 88 | 1009.0 |
| 20260506191731 | 59 | 112 | 0.0 | 1.0 | 0.05 | 0.16 | 0.13 | 88 | 1009.1 |
| 20260506190830 | 60 | 202 | 0.0 | 2.0 | 0.03 | 0.13 | 0.11 | 89 | 1009.2 |
| 20260506185830 | 60 | 243 | 2.0 | 4.0 | 0.04 | 0.13 | 0.11 | 89 | 1009.1 |
| 20260506185733 | 60 | 219 | 3.0 | 5.0 | 0.04 | 0.13 | 0.10 | 89 | 1009.2 |
| 20260506183831 | 59 | 174 | 3.0 | 5.0 | 0.05 | 0.12 | 0.10 | 88 | 1009.1 |
| 20260506182829 | 59 | 135 | 0.0 | 1.0 | 0.05 | 0.11 | 0.09 | 89 | 1009.6 |
| 20260506181830 | 59 | 337 | 0.0 | 0.0 | 0.07 | 0.11 | 0.09 | 89 | 1009.8 |
| 20260506180831 | 59 | 206 | 2.0 | 6.0 | 0.07 | 0.10 | 0.08 | 89 | 1010.1 |
| 20260506175847 | 59 | 220 | 1.0 | 2.0 | 0.06 | 0.09 | 0.07 | 89 | 1010.1 |
| 20260506174931 | 59 | 287 | 0.0 | 1.0 | 0.06 | 0.08 | 0.06 | 89 | 1010.2 |
| 20260506174832 | 59 | 157 | 0.0 | 0.0 | 0.06 | 0.08 | 0.06 | 88 | 1010.2 |
| 20260506173831 | 59 | 148 | 1.0 | 4.0 | 0.05 | 0.07 | 0.05 | 88 | 1010.5 |
| 20260506173729 | 59 | 145 | 1.0 | 4.0 | 0.05 | 0.07 | 0.05 | 88 | 1010.4 |
| 20260506173633 | 59 | 176 | 2.0 | 3.0 | 0.05 | 0.07 | 0.05 | 88 | 1010.6 |
| 20260506172631 | 60 | 212 | 1.0 | 4.0 | 0.03 | 0.05 | 0.03 | 87 | 1010.6 |
| 20260506172530 | 60 | 191 | 0.0 | 2.0 | 0.03 | 0.05 | 0.03 | 86 | 1010.7 |
| 20260506171531 | 60 | 213 | 3.0 | 5.0 | 0.02 | 0.04 | 0.02 | 84 | 1010.6 |
| 20260506165631 | 61 | 233 | 2.0 | 4.0 | 0.00 | 0.02 | 0.00 | 81 | 1010.6 |
| 20260506164633 | 62 | 207 | 5.0 | 9.0 | 0.00 | 0.02 | 0.00 | 79 | 1010.4 |
| 20260506164530 | 62 | 237 | 4.0 | 8.0 | 0.00 | 0.02 | 0.00 | 78 | 1010.6 |
| 20260506163531 | 63 | 234 | 3.0 | 7.0 | 0.00 | 0.02 | 0.00 | 76 | 1010.4 |
| 20260506161630 | 63 | 200 | 1.0 | 3.0 | 0.00 | 0.02 | 0.00 | 75 | 1010.5 |
| 20260506160630 | 63 | 183 | 2.0 | 13.0 | 0.00 | 0.02 | 0.00 | 75 | 1010.8 |
| 20260506155646 | 63 | 241 | 3.0 | 9.0 | 0.00 | 0.02 | 0.00 | 74 | 1011.0 |
| 20260506154630 | 63 | 177 | 5.0 | 11.0 | 0.00 | 0.02 | 0.00 | 75 | 1011.0 |
| 20260506154545 | 63 | 194 | 3.0 | 7.0 | 0.00 | 0.02 | 0.00 | 75 | 1011.1 |
| 20260506153530 | 63 | 214 | 6.0 | 10.0 | 0.00 | 0.02 | 0.00 | 74 | 1011.1 |
| 20260506152532 | 63 | 167 | 4.0 | 7.0 | 0.00 | 0.02 | 0.00 | 75 | 1011.3 |
| 20260506152446 | 63 | 253 | 2.0 | 4.0 | 0.00 | 0.02 | 0.00 | 74 | 1011.4 |
| 20260506151531 | 64 | 201 | 3.0 | 6.0 | 0.00 | 0.02 | 0.00 | 74 | 1011.4 |
| 20260506150532 | 64 | 159 | 3.0 | 6.0 | 0.00 | 0.02 | 0.00 | 74 | 1011.5 |
| 20260506144530 | 64 | 196 | 4.0 | 6.0 | 0.00 | 0.02 | 0.00 | 73 | 1011.3 |
| 20260506142630 | 65 | 134 | 2.0 | 7.0 | 0.00 | 0.02 | 0.00 | 72 | 1011.5 |
| 20260506141729 | 65 | 273 | 1.0 | 5.0 | 0.00 | 0.02 | 0.00 | 72 | 1011.4 |
| 20260506140729 | 64 | 191 | 6.0 | 11.0 | 0.00 | 0.02 | 0.00 | 74 | 1011.1 |
| 20260506135730 | 64 | 169 | 4.0 | 7.0 | 0.00 | 0.02 | 0.00 | 75 | 1011.1 |
| 20260506134732 | 64 | 142 | 4.0 | 8.0 | 0.00 | 0.02 | 0.00 | 77 | 1011.2 |
| 20260506131731 | 61 | 226 | 4.0 | 6.0 | 0.00 | 0.02 | 0.00 | 80 | 1011.9 |
| 20260506125731 | 61 | 207 | 5.0 | 11.0 | 0.00 | 0.02 | 0.00 | 80 | 1011.9 |
| 20260506125630 | 61 | 245 | 5.0 | 11.0 | 0.00 | 0.02 | 0.00 | 80 | 1012.1 |
| 20260506124629 | 60 | 234 | 6.0 | 12.0 | 0.00 | 0.02 | 0.00 | 81 | 1012.0 |
| 20260506123729 | 60 | 219 | 6.0 | 10.0 | 0.00 | 0.02 | 0.00 | 81 | 1012.0 |
| 20260506122729 | 60 | 216 | 4.0 | 7.0 | 0.00 | 0.02 | 0.00 | 81 | 1012.2 |
| 20260506121731 | 60 | 230 | 5.0 | 11.0 | 0.00 | 0.02 | 0.00 | 82 | 1011.8 |
| 20260506120731 | 60 | 238 | 3.0 | 6.0 | 0.00 | 0.02 | 0.00 | 82 | 1011.9 |
| 20260506115829 | 60 | 247 | 3.0 | 6.0 | 0.00 | 0.02 | 0.00 | 81 | 1011.8 |
| 20260506114832 | 60 | 229 | 4.0 | 11.0 | 0.00 | 0.02 | 0.00 | 82 | 1012.1 |
| 20260506113846 | 59 | 240 | 5.0 | 8.0 | 0.00 | 0.02 | 0.00 | 82 | 1012.3 |